Location: East Guldeford
(50.9500°N, 0.7500°E)
Time: 08:27:24
(UTC+00:00)

Cosmos 1354 Rocket - Pass Details

Date: 12 May 2021
Orbit: 764 x 784 km, 74.0° (Epoch: 17 June)

Event Time Altitude Azimuth Distance (km) Brightness Sun altitude
Rises 20:41:20 0° 209° (SSW) 3,218 7.1 -8.9°
Reaches altitude 10° 20:43:42 10° 211° (SSW) 2,298 6.3 -9.2°
Maximum altitude 20:48:54 73° 296° (WNW) 806 4.3 -9.8°
Drops below altitude 10° 20:54:11 10° 22° (NNE) 2,323 6.8 -10.4°
Sets 20:56:35 0° 24° (NNE) 3,256 7.6 -10.6°
